Terminal Aerodrome Forecast
Issued by NWS Wakefield, VA

Home | Current Version | Previous Version | Text Only | Print | Product List | Glossary On
Versions: 1 2 3 4 5 6 7 8 9 10 11 12 13 14 15 16 17 18 19 20 21 22 23 24 25 26 27 28 29 30 31 32 33
657
FTUS41 KAKQ 060919 AAD
TAFECG
TAF AMD
KECG 060919Z 0609/0706 VRB05KT P6SM SCT015 OVC040
      TEMPO 0609/0611 BKN015
     FM061100 27007KT P6SM BKN012
     FM061700 25007KT P6SM OVC025
     FM062300 VRB05KT P6SM BKN025 OVC040=

USA.gov is the U.S. government's official web portal to all federal, state and local government web resources and services.